Tracking 29799 objects as of 11-Oct-2024
HD Live streaming from Space Station
objects crossing your sky now

STARLINK-1656

Track STARLINK-1656 now!
10-day predictions
STARLINK-1656 is classified as:


NORAD ID: 46353
Int'l Code: 2020-062AE
Perigee: 553.1 km
Apogee: 555.0 km
Inclination: 53.1 °
Period: 95.6 minutes
Semi major axis: 6925 km
RCS: Unknown
Launch date: September 3, 2020
Source: United States (US)
Launch site: AIR FORCE EASTERN TEST RANGE (AFETR)
Your satellite tracking list
Your tracking list is empty




NASA's NSSDC Master Catalog

Two Line Element Set (TLE):
1 46353U 20062AE  24284.89073481  .00088853  00000-0  58935-2 0  9995
2 46353  53.0532 167.6414 0001380 104.7159 255.3983 15.06499310226710
Source of the keplerian elements: AFSPC